Lid_Strength_Index
2 2 2 2 2 3 3 2 2 1 1 2 1 1 2 2 2 2 2 2 2 3
2 2 3 2 2 2 2 2 1 2 2 1 1 1 2 2 2 2 2 2 2 2
2 2 2 2 2 2 2 2 2 2 2 1 1 1 2 2 1 1 2 2 2 2
2 1 2 2 1 2 2 1 2 1 1 1 1 1 2 2 1 2 2 2 2 2
2 2 2 2 2 2 2 2 1 1 1 1 1 2 2 2 1 2 2 2 2 2
2 2 2 2 1 2 2 1 1 1 1 1 1 2 2 2 1 2 1 2 2 2
2 2 2 2 2 1 1 1 1 1 1 1 1 1 1 1 1 1 1 2 2 2
2 2 2 2 2 2 1 2 1 1 1 2 3 3 2 1 2 2 2 2 1 2
2 2 2 2 2 2 2 1 1 1 2 3 2 8 7 4 2 2 2 2 3 3
2 2 2 2 2 2 2 1 2 2 3 4 4 9 10 8 2 2 2 2 1 2
2 2 2 2 2 2 2 3 3 2 3 4 4 9 10 7 2 2 2 2 2 1
2 2 2 2 2 2 2 2 2 2 4 4 4 9 11 4 2 2 2 1 1 1
2 2 2 2 2 2 2 2 1 2 3 4 4 9 10 4 2 2 3 3 3 6
2 2 2 2 2 2 2 2 2 2 3 2 4 6 10 7 2 2 2 3 3 4